#timestamp,LO_Frequency,Hit,StdDev 
1581271935.6,286047022.4,P
1581271955.4,286047022.6,P
1581271975.3,286047024.2,P
1581271995.1,286047024.5,Y
1581272015.9,286047004.0,P
1581272035.7,286047004.4,N
1581272055.5,286047003.3,N
1581272075.4,286047005.6,N
1581272095.2,286047005.4,N
1581272115.0,286047007.1,N
1581272115.9,286047007.1,N
1581272135.8,286047006.8,N
1581272155.6,286047007.0,N
1581272175.5,286047008.7,N
1581272195.3,286047008.5,N
1581272215.1,286047008.2,N
1581272235.9,286047009.5,N
1581272255.7,286047013.0,N
1581272275.6,286047017.0,Y
1581272295.4,286047009.9,P
1581272315.2,286047010.8,P
1581272335.1,286047008.4,P
1581272336.0,286047008.4,Y
1581272355.8,286046999.2,P
1581272375.6,286046999.0,N
1581272395.5,286046996.9,N
1581272415.3,286046999.1,N
1581272435.2,286046996.5,N
1581272455.9,286046998.6,N
1581272475.7,286047011.9,N
1581272495.6,286047001.1,N
1581272515.4,286047000.0,N
1581272535.3,286047002.2,N
1581272555.1,286047001.9,N
1581272556.0,286047001.9,N
1581272575.8,286047001.7,N
1581272595.7,286047002.5,N
1581272615.5,286047002.1,N
1581272635.3,286047004.4,N
1581272655.2,286047001.5,N
1581272675.0,286047003.5,N
1581272675.9,286047003.5,N
1581272695.8,286047005.6,N
1581272715.6,286047005.3,N
1581272735.4,286047007.2,N
1581272755.3,286047004.9,N
1581272775.1,286047005.1,N
1581272795.9,286047005.4,N
1581272815.7,286047005.5,N
1581272835.5,286047005.1,N
1581272855.4,286047007.5,N
1581272875.2,286047007.4,N
1581272895.1,286047008.6,N
1581272896.0,286047008.6,N
1581272915.8,286047008.1,N
1581272935.6,286047010.3,N
1581272955.5,286047010.2,N
1581272975.3,286047009.9,N
1581272995.1,286047012.4,Y
1581273015.9,286047006.7,P
1581273035.7,286047006.4,P
1581273055.6,286047008.8,P
1581273075.4,286047008.7,Y
1581273095.2,286047004.4,P
1581273115.1,286047004.2,P
1581273116.0,286047004.2,P
1581273135.8,286047004.4,Y
1581273155.7,286046999.3,P
1581273175.5,286046999.6,N
1581273195.3,286046999.0,N
1581273215.2,286046998.7,N
1581273235.9,286046998.2,N
1581273255.7,286046998.8,N
1581273275.6,286046998.1,N
1581273295.4,286047000.4,N
1581273315.3,286047001.6,N
1581273335.1,286047003.8,N
1581273336.0,286047003.8,N
1581273355.8,286047003.8,N
1581273375.7,286047006.0,N
1581273395.5,286047005.5,N
1581273415.3,286047007.1,N
1581273435.2,286047007.0,N
1581273455.0,286047009.2,N
1581273455.9,286047009.2,N
1581273475.8,286047008.8,N
1581273495.6,286047010.6,N
1581273515.4,286047011.3,N
1581273535.3,286047013.9,Y
1581273555.1,286047009.4,P
1581273575.9,286047012.4,P
1581273595.7,286047009.8,N
1581273615.5,286047010.1,Y
1581273635.4,286047002.2,P
1581273655.2,286047004.0,N
1581273675.0,286047005.5,N
1581273676.0,286047005.5,N
1581273695.8,286047003.1,N
1581273715.6,286047004.2,N
1581273735.5,286047003.7,N
1581273755.3,286047003.0,N
1581273775.1,286047003.8,N
1581273795.9,286047003.9,N
1581273815.7,286047003.3,N
1581273835.6,286047004.9,N
1581273855.4,286047007.4,Y
1581273875.2,286047001.7,P
1581273895.1,286047002.1,N
1581273896.0,286047002.1,N
1581273915.8,286047004.3,Y
1581273935.7,286047002.3,P
1581273955.5,286047002.2,P
1581273975.3,286047001.9,P
1581273995.2,286047004.0,Y
1581274015.0,286047000.1,P
1581274015.9,286047000.1,N
1581274035.7,286047000.2,N
1581274055.6,286047002.8,Y
1581274075.4,286047002.0,P
1581274095.3,286047003.6,P
1581274115.1,286047004.8,P
1581274135.8,286047006.1,Y
1581274155.7,286047007.2,P
1581274175.5,286047005.1,N
1581274195.4,286047005.0,N
1581274215.2,286047007.5,Y
1581274235.0,286047001.6,P
1581274235.9,286047001.6,N
1581274255.8,286047003.9,N
1581274275.6,286047005.5,Y
1581274295.4,286047000.6,P
1581274315.3,286047000.7,N
1581274335.1,286046999.9,N
1581274355.9,286046999.9,N
1581274375.7,286047000.6,N
1581274395.5,286047001.2,N
1581274415.4,286047001.9,N
1581274435.2,286047001.4,N
1581274455.0,286047005.2,Y
1581274455.9,286047005.2,P
1581274475.8,286047005.0,N
1581274495.6,286047006.4,P
1581274515.5,286047008.0,Y
1581274535.3,286047007.5,P
1581274555.1,286047007.5,P
1581274575.9,286047007.4,P
1581274595.7,286047002.9,N
1581274615.5,286047003.2,N
1581274635.4,286047004.1,N
1581274655.2,286047003.9,N
1581274675